METEREN Weather Reports


time (UTC)temp
C
wind
direction
speed
KPH
gust
KPH
rain 1hr
cm
rain 24hr
cm
rain mn
cm
humidity
%
barometer
mb
20260507203028 12 360 0.0 6.4 0.00 0.00 0.00 72 1016.0
20260507201535 13 360 0.0 6.4 0.00 0.00 0.00 71 1015.7
20260507200033 13 360 1.6 6.4 0.00 0.00 0.00 71 1015.6
20260507194525 13 360 1.6 6.4 0.00 0.00 0.00 70 1015.6
20260507193025 13 360 0.0 1.6 0.00 0.00 0.00 69 1015.6
20260507191525 13 360 1.6 6.4 0.00 0.00 0.00 68 1015.6
20260507190025 14 360 1.6 6.4 0.00 0.00 0.00 66 1015.5
20260507184522 15 360 0.0 6.4 0.00 0.00 0.00 65 1015.5
20260507183020 15 360 1.6 9.7 0.00 0.00 0.00 64 1015.5
20260507181518 -17 0.0 0.0 0.00 0.00 0.00 1015.4
20260507180031 -17 0.0 0.0 0.00 0.00 0.00 1015.3
20260507174516 15 360 4.8 9.7 0.00 0.00 0.00 62 1015.2
20260507173016 15 360 0.0 9.7 0.00 0.00 0.00 62 1015.3
20260507171509 15 360 4.8 11.3 0.00 0.00 0.00 61 1015.3
20260507170023 -17 0.0 0.0 0.00 0.00 0.00 1015.3
20260507164504 16 360 1.6 6.4 0.00 0.00 0.00 57 1015.1
20260507163003 16 360 0.0 0.0 0.00 0.00 0.00 57 1015.1
20260507161505 16 360 0.0 6.4 0.00 0.00 0.00 56 1015.2
20260507160003 16 360 1.6 8.0 0.00 0.00 0.00 57 1015.0
20260507154603 -17 0.0 0.0 0.00 0.00 0.00 1015.0
20260507153106 16 360 0.0 8.0 0.00 0.00 0.00 56 1015.0
20260507151556 16 360 3.2 8.0 0.00 0.00 0.00 57 1015.0
20260507150108 16 360 3.2 11.3 0.00 0.00 0.00 56 1015.0
20260507144555 16 360 1.6 8.0 0.00 0.00 0.00 56 1015.0
20260507143105 16 360 4.8 9.7 0.00 0.00 0.00 56 1015.0
20260507141557 16 360 4.8 11.3 0.00 0.00 0.00 55 1015.1
20260507140100 16 360 8.0 12.9 0.00 0.00 0.00 54 1015.1
20260507134554 17 360 6.4 12.9 0.00 0.00 0.00 51 1015.1
20260507133052 17 360 3.2 9.7 0.00 0.00 0.00 53 1015.1
20260507131552 17 117 4.8 9.7 0.00 0.00 0.00 55 1015.1
20260507124556 16 360 4.8 16.1 0.00 0.00 0.00 57 1015.1
20260507123050 15 360 9.7 19.3 0.00 0.00 0.00 59 1015.1
20260507121554 15 360 8.0 16.1 0.00 0.00 0.00 57 1015.0
20260507120048 15 360 3.2 9.7 0.00 0.00 0.00 55 1015.1
20260507114548 15 360 1.6 8.0 0.00 0.00 0.00 56 1015.1
20260507113049 15 360 0.0 12.9 0.00 0.00 0.00 58 1015.1
20260507111547 16 360 4.8 11.3 0.00 0.00 0.00 57 1015.3
20260507110056 17 360 0.0 11.3 0.00 0.00 0.00 55 1015.2
20260507104550 16 360 6.4 12.9 0.00 0.00 0.00 56 1015.2
20260507103106 16 360 6.4 14.5 0.00 0.00 0.00 57 1015.2
20260507101541 16 360 0.0 12.9 0.00 0.00 0.00 58 1015.2
20260507100044 15 360 3.2 14.5 0.00 0.00 0.00 62 1015.2
20260507094536 -17 0.0 0.0 0.00 0.00 0.00 1015.1
20260507093030 -17 0.0 0.0 0.00 0.00 0.00 1015.0
20260507091535 -17 0.0 0.0 0.00 0.00 0.00 1015.0
20260507090024 -17 0.0 0.0 0.00 0.00 0.00 1014.9
20260507084535 -17 0.0 0.0 0.00 0.00 0.00 1014.9
20260507083013 -17 0.0 0.0 0.00 0.00 0.00 1014.8
20260507081513 -17 0.0 0.0 0.00 0.00 0.00 1014.8
20260507080005 -17 0.0 0.0 0.00 0.00 0.00 1014.6
20260507074608 -17 0.0 0.0 0.00 0.00 0.00 1014.7
20260507073056 -17 0.0 0.0 0.00 0.00 0.00 1014.6
20260507071551 -17 0.0 0.0 0.00 0.00 0.00 1014.7
20260507064553 10 360 8.0 14.5 0.00 0.00 0.00 76 1014.4
20260507063047 10 360 6.4 14.5 0.00 0.00 0.00 78 1014.3
20260507061543 9 360 8.0 16.1 0.00 0.00 0.00 80 1014.4
20260507060040 8 360 9.7 16.1 0.00 0.00 0.00 82 1014.4
20260507054559 8 360 8.0 12.9 0.00 0.00 0.00 84 1014.3
20260507053037 7 360 3.2 11.3 0.00 0.00 0.00 86 1014.2
20260507051534 7 360 4.8 9.7 0.00 0.00 0.00 87 1014.1
20260507050041 7 360 4.8 9.7 0.00 0.00 0.00 87 1013.9
20260507044527 7 360 4.8 11.3 0.00 0.00 0.00 87 1013.7
20260507043023 7 360 1.6 8.0 0.00 0.00 0.00 86 1013.7
20260507041522 7 360 1.6 8.0 0.00 0.00 0.00 86 1013.6
20260507040019 7 360 1.6 6.4 0.00 0.00 0.00 86 1013.4
20260507034521 7 360 1.6 8.0 0.00 0.00 0.00 86 1013.3
20260507033018 7 360 3.2 8.0 0.00 0.00 0.00 86 1013.3
20260507031516 8 360 3.2 11.3 0.00 0.00 0.00 85 1013.2
20260507030017 8 360 3.2 9.7 0.00 0.00 0.00 86 1013.2
20260507024515 8 360 6.4 9.7 0.00 0.00 0.00 85 1013.1
20260507023011 8 360 1.6 11.3 0.00 0.00 0.00 85 1013.0
20260507021510 8 360 4.8 11.3 0.00 0.00 0.00 85 1012.8
20260507020009 8 360 6.4 12.9 0.00 0.00 0.00 85 1012.7
20260507014506 8 360 6.4 11.3 0.00 0.00 0.00 84 1012.7
20260507013003 8 360 6.4 11.3 0.00 0.00 0.00 84 1012.7
20260507011502 8 360 3.2 9.7 0.00 0.00 0.00 84 1012.7
20260507010101 9 360 3.2 11.3 0.00 0.00 0.00 83 1012.5
20260507004558 9 360 3.2 9.7 0.00 0.00 0.00 82 1012.4
20260507003055 9 360 3.2 9.7 0.00 0.00 0.00 82 1012.3
20260507001602 10 360 6.4 11.3 0.00 0.00 0.00 81 1012.3
20260507000116 10 360 3.2 9.7 0.00 0.00 0.00 81 1012.2
20260506234607 10 360 4.8 9.7 0.00 0.00 0.00 80 1012.1
20260506233050 10 360 1.6 9.7 0.00 0.00 0.00 79 1011.9
20260506231545 10 360 4.8 9.7 0.00 0.00 0.00 79 1011.8
20260506230047 10 360 4.8 9.7 0.00 0.00 0.00 79 1011.9
20260506224547 10 360 8.0 17.7 0.00 0.00 0.00 80 1011.9
20260506223042 10 360 1.6 6.4 0.00 0.00 0.00 81 1011.8
20260506221551 10 360 1.6 6.4 0.00 0.00 0.00 80 1011.8
20260506220045 11 360 1.6 4.8 0.00 0.00 0.00 79 1011.6
20260506214540 11 360 0.0 0.0 0.00 0.00 0.00 78 1011.5
20260506213043 11 360 0.0 0.0 0.00 0.00 0.00 78 1011.3
20260506211544 11 360 0.0 0.0 0.00 0.00 0.00 78 1011.2
20260506210044 11 360 0.0 0.0 0.00 0.00 0.00 76 1011.1
20260506204535 11 360 0.0 0.0 0.00 0.00 0.00 76 1011.1